weather.gov     
National Weather Service

Hourly Weather Roundup
NWS Homepage
This page is being discontinued on March 12, 2014.
The same data is available at this site. Please update your bookmarks.
Thank you, and we apologize for the inconvenience.
Please send an email to SR-SRH.Webmaster@noaa.gov with any concerns.


Current Version
Previous Version:    01  02  03  04  05  06  07  08  09  10  11  12  13  14  15  16  17  18  19  20  21  22  23  24  25  26  27  28  29  30  
   31  32  33  34  35  36  37  38  39  40  41  42  43  44  45  46  47  48  49  50  51  52  53  54  55  56  57  58  59  60  
[Printable]
780
NZUS43 KILX 301710
HWRILX

AREA WEATHER ROUNDUP
NATIONAL WEATHER SERVICE, LINCOLN IL
1200 PM CDT WED JUL 30 2014


CITY           SKY/WX    TMP DP  RH WIND       PRES   REMARKS
BLOOMINGTON    FAIR      76  57  51 NW10      30.09F
CHAMPAIGN      FAIR      75  64  68 W9        30.08F
DECATUR        FAIR      79  59  50 W13       30.09S HX  80
FLORA          FAIR      78  57  48 SW8       30.10F
GALESBURG      FAIR      79  60  52 W9        30.09F HX  80
JACKSONVILLE   FAIR      78  61  55 NW6       30.11S HX  80
LACON          FAIR      76  59  54 W5        30.07S
LAWRENCEVILLE  FAIR      77  60  55 W10       30.10S
LITCHFIELD     FAIR      76  58  53 W5        30.11S
$$


CITY           SKY/WX    TMP DP  RH WIND       PRES   REMARKS
LINCOLN        FAIR      79  59  50 NW6       30.06S HX  80
MACOMB         FAIR      75  60  58 NW6       30.12S
MATTOON        FAIR      77  59  53 W9        30.09S
MT CARMEL AP   FAIR      79  59  50 W6        30.10S HX  80
OLNEY-NOBLE AP PTSUNNY   77  61  57 CALM      30.10F
PARIS          FAIR      76  62  59 W6        30.09S
PEORIA         FAIR      80  59  48 W6        30.08F HX  81
PONTIAC        FAIR      77  61  57 W6        30.07S
RANTOUL        FAIR      78  61  57 W8        30.08F
ROBINSON       FAIR      79  64  59 W7        30.10F HX  81
SPRINGFIELD    FAIR      79  60  52 VRB7      30.09F HX  80
TAYLORVILLE    PTSUNNY   77  61  57 W5        30.10S
$$

...REGIONAL REPORTS...


CITY           SKY/WX    TMP DP  RH WIND       PRES   REMARKS
CHICAGO O`HARE FAIR      77  52  41 NW10      30.04F
KANKAKEE       FAIR      76  61  59 W8        30.07S
MOLINE         FAIR      78  59  51 N7        30.08S
MOUNT VERNON   FAIR      81  57  44 SW7       30.11S HX  81
PITTSFIELD     FAIR      78  57  48 NW6       30.11F
QUINCY         FAIR      77  56  48 NW8       30.10F
ROCKFORD       FAIR      75  57  53 W8        30.08R
$$


CITY           SKY/WX    TMP DP  RH WIND       PRES   REMARKS
BURLINGTON     FAIR      77  59  53 NW8       30.09F
CEDAR RAPIDS   FAIR      75  61  61 MISG      30.09S
DES MOINES     FAIR      76  54  46 N7        30.13S
KIRKSVILLE     PTSUNNY   76  56  49 NW6       30.13S
OTTUMWA        FAIR      75  59  57 NW9       30.10S
ST LOUIS       PTSUNNY   82  54  37 N3        30.10S HX  81
$$


CITY           SKY/WX    TMP DP  RH WIND       PRES   REMARKS
TERRE HAUTE    PTSUNNY   77  60  55 SW8G21    30.08S
EVANSVILLE     PTSUNNY   79  55  43 SW7       30.11S
INDIANAPOLIS   PTSUNNY   76  61  59 W12       30.06F
LAFAYETTE      FAIR      72  60  66 W5        30.06F
MADISON        PTSUNNY   72  58  61 VRB5      30.07S
MILWAUKEE      FAIR      68  57  68 NE12      30.06S
$$






U.S. Dept. of Commerce
NOAA National Weather Service
1325 East West Highway
Silver Spring, MD 20910
E-mail: w-nws.webmaster@noaa.gov
Page last modified: May 16, 2007
NATIONAL WEATHER SERVICE: for Safety, for Work, for Fun - FOR LIFE